Regional Weather Roundup
Issued by NWS

Home | Current Version | Previous Version | Text Only | Print | Product List | Glossary Off
Versions: 1 2 3 4 5 6 7 8 9 10 11 12 13 14 15 16 17 18 19 20 21 22 23 24 25 26 27 28 29 30 31 32 33 34 35 36 37 38 39 40 41 42 43 44 45 46 47 48 49 50

000
ASUS43 KLOT 261608
RWRIL

ILLINOIS REGIONAL WEATHER ROUNDUP
NATIONAL WEATHER SERVICE CHICAGO/ROMEOVILLE IL
1100 AM CDT TUE MAY 26 2015

NOTE: "FAIR" INDICATES FEW OR NO CLOUDS BELOW 12,000 FEET WITH NO
SIGNIFICANT WEATHER AND/OR OBSTRUCTIONS TO VISIBILITY.

* THESE STATIONS ARE NOT UNDER NWS QUALITY CONTROL. THEY ALSO MAY NOT
  REPORT WEATHER SUCH AS PRECIPITATION OR FOG.

ILZ001-002-007-009-015-016-024-261700-
NORTHWEST ILLINOIS

CITY           SKY/WX    TMP DP  RH WIND       PRES   REMARKS
MOLINE         CLOUDY    70  65  84 S13       29.74S
STERLING*      CLOUDY    70  66  88 S8G17     29.77S
SAVANNA*       CLOUDY    67  65  91 W14       29.75S
$$

ILZ003-004-008-010-011-017-018-261700-
NORTH CENTRAL ILLINOIS

CITY           SKY/WX    TMP DP  RH WIND       PRES   REMARKS
ROCKFORD       LGT RAIN  71  65  81 SE13      29.79F
FREEPORT*      RAIN      67  66  95 SE15G21   29.78F
ROCHELLE*      RAIN      69  67  94 SE18      29.78F
DE KALB*       CLOUDY    68  65  90 SE15G23   29.81F
PERU*          HVY RAIN  70  67  91 S28       29.81R
$$

ILZ005-006-012>014-019>023-261700-
NORTHEAST ILLINOIS

CITY           SKY/WX    TMP DP  RH WIND       PRES   REMARKS
CHICAGO-OHARE  CLOUDY    72  65  78 SE13      29.84F
CHICAGO-MIDWAY CLOUDY    74  66  76 S14G23    29.85F
AURORA         CLOUDY    72  66  81 SE20      29.81F
LANSING*       CLOUDY    73  64  75 S14G20    29.88F
JOLIET*        CLOUDY    73  67  81 SE14G22   29.84F
WAUKEGAN       CLOUDY    62  60  93 SE13      29.85F FOG
DUPAGE AIRPORT CLOUDY    72  65  78 SE17      29.82F
KANKAKEE*      CLOUDY    74  67  78 S16G29    29.87F
WHEELING       CLOUDY    72  65  78 SE13G21   29.85F
MORRIS*        CLOUDY    73  66  80 SE16G26   29.81F
ROMEOVILLE*    CLOUDY    72  65  79 S18G25    29.84F
NORTHERLY ISL    N/A     64  60  87 SE6         N/A
$$

LMZ740>746-261700-
SOUTHERN LAKE MICHIGAN

STATION/POSITION SKY/WX   TEMP    WIND        PRES    VSBY  WAVE
                          AIR SEA DIR/SP/G                  HT/PER
                          (F)     (DEG/KT/KT) (MB)    (MI)  (FT/S)
SOUTHERN BUOY              49 38  130/ 12/ 14 1013.2F         1/ 3
HARRISON CRIB              63     130/ 18/ 20   N/A
BURNHAM HARBOR             68     140/  8/ 16   N/A
CALUMET HARBOR             72     150/  9/ 15   N/A
BURNS HARBOR               72     170/ 10/ 21 1013.5F
MICHIGAN CITY              71     140/ 13/ 17   N/A
MICHIGAN CITY 6N           65 52  180/ 12/ 16   N/A           1/ 2
ST. JOSEPH                 65 55  180/ 10/ 12   N/A           1/ 2
$$

ILZ025>027-034>036-040-047-049-050-058-095>099-261700-
WEST-CENTRAL ILLINOIS

CITY           SKY/WX    TMP DP  RH WIND       PRES   REMARKS
QUINCY         CLOUDY    70  61  73 SW18G30   29.81R
GALESBURG*     CLOUDY    68  63  85 S15G23    29.78S
MACOMB*        CLOUDY    70  64  83 SW16      29.81R
JACKSONVILLE*  CLOUDY    75  65  71 SW21G30   29.83R
PITTSFIELD*    CLOUDY    72  62  70 SW22G29   29.85R
$$

ILZ028>032-037-038-041>044-048-051>054-059>061-261700-
CENTRAL ILLINOIS

CITY           SKY/WX    TMP DP  RH WIND       PRES   REMARKS
PONTIAC        LGT RAIN  73  69  87 S22       29.83F
BLOOMINGTON    HVY RAIN  65  64  96 SW16G25   29.87R VSB 1
DECATUR        RAIN      68  65  90 SW22G35   29.88R FOG
PEORIA         CLOUDY    71  65  81 S14       29.81F
LACON*         LGT RAIN  64  62  91 S7        29.80R
LINCOLN*       CLOUDY    67  64  88 S10       29.83F
SPRINGFIELD    PTSUNNY   73  65  75 S15G22    29.84S
TAYLORVILLE    CLOUDY    68  64  88 SW12G17   29.88S
$$

ILZ033-039-045-046-055>057-062-063-261700-
EAST-CENTRAL ILLINOIS

CITY           SKY/WX    TMP DP  RH WIND       PRES   REMARKS
CHAMPAIGN      PTSUNNY   74  66  76 S30G36    29.87F
DANVILLE*      CLOUDY    73  66  80 S18       29.88F
RANTOUL*       RAIN      74  68  80 S24       29.88F
MATTOON        CLOUDY    71  67  87 S14G25    29.90F
PARIS*         CLOUDY    74  66  76 S18G30    29.93S
$$

ILZ079-100>102-261700-
SOUTHWEST ILLINOIS

CITY           SKY/WX    TMP DP  RH WIND       PRES   REMARKS
ALTON          PTSUNNY   75  68  78 SW18      29.88S
BELLEVILLE     MOSUNNY   76  65  70 S16G22    29.89R
CAHOKIA*       PTSUNNY   75  60  59 SW13G22   29.89R
SPARTA*        PTSUNNY   73  64  72 SW13G25   29.94R
$$

ILZ064>066-069>071-074>076-080>082-084>086-088>090-092>094-261700-
SOUTH-CENTRAL ILLINOIS

CITY           SKY/WX    TMP DP  RH WIND       PRES   REMARKS
CARBONDALE     PTSUNNY   75  63  66 SW20G31   29.96R
CAIRO*         PTSUNNY   72  64  76 SW14G24   30.01R
EFFINGHAM*     CLOUDY    73  65  74 SE12G24   29.92F
MARION         PTSUNNY   75  66  73 S16       29.97R
MT. VERNON     CLOUDY    73  64  73 SW14G26   29.94R
CENTRALIA*     CLOUDY    75  65  70 S17G24    29.92S
SALEM*         CLOUDY    72  67  84 S17       29.92R
METROPOLIS*    CLOUDY    71  70  96 SW9       30.01R
$$

ILZ067-068-072-073-078-083-087-091-261700-
SOUTHEAST ILLINOIS

CITY           SKY/WX    TMP DP  RH WIND       PRES   REMARKS
LAWRENCEVILLE  CLOUDY    75  65  70 S21G32    29.96S
FLORA*         CLOUDY    74  65  73 S16G26    29.93S
FAIRFIELD*     CLOUDY    75  66  74 S18G31    29.94S
HARRISBURG*    CLOUDY    75  66  75 S18G25    29.98S
ROBINSON*      CLOUDY    74  65  74 S20G26    29.96S
CARMI*         CLOUDY    75  63  64 S21G30    29.97S
$$

ABBREVIATIONS USED IN REMARKS
   TC - TEMPERATURE IN CELSIUS
  WCI - WIND CHILL INDEX
   HX - HEAT INDEX
  VSB - VISIBILITY
$$




USA.gov is the U.S. government's official web portal to all federal, state and local government web resources and services.